[[{"header":{"parameterUnit":"m.s-1","parameterCategory":1,"la1":30.2991,"la2":30.254,"lo1":-89.0895,"lo2":-89.0444,"dy":0.0017,"dx":0.0017,"nx":28,"ny":28,"refTime":"2024-07-23T03:00:00:Z","depth":0,"parameterNumber":2,"parameterNumberName":"U-component_of_WINDS"},"data":[0,0,0,0,0,0,0,0,0,0,0,0,0,0,0,0,0,0,0,0,0,0,0,0,0,0,0,0,0,0,0,0,0,0,0,0,0,0,0,0,0,0,0,0,0,0,0,0,0,0,0,0,0,0,0,0,0,0,3.0622,3.062,0,3.0397,3.0394,3.0392,3.019,3.0188,3.0186,3.0183,2.9946,2.9942,2.9938,0,0,0,0,0,0,0,0,0,0,0,0,0,3.0872,3.0868,3.0622,3.0619,3.0617,3.0397,3.0394,3.0391,3.0191,3.0188,3.0185,3.0182,2.9947,2.9943,2.9938,0,0,0,0,0,0,0,0,0,0,0,0,0,3.0717,3.0867,3.0623,3.049,3.0476,3.0398,3.0394,3.039,3.0191,3.0188,3.0184,3.0181,2.9949,2.9943,2.9937,2.997,0,0,2.9918,2.9915,0,0,0,0,0,0,0,0,3.0726,3.0708,3.0512,3.0499,3.0483,3.0318,3.0395,3.0249,3.0192,3.0299,3.0183,3.0179,3.0072,3.0056,3.0021,2.9959,2.9948,2.9918,2.9914,2.9911,2.9909,0,0,0,0,0,0,0,3.0737,3.0716,3.0533,3.051,3.0492,3.044,3.0414,3.0366,3.0208,3.029,3.0275,3.0251,3.0064,3.0028,3.0014,2.9945,2.9918,2.9912,2.9908,2.9906,2.9896,2.9899,0,0,0,0,0,0,3.0769,3.0727,3.054,3.0526,3.0599,3.0438,3.0409,3.0375,3.0208,3.018,3.0254,3.0243,3.004,3.0022,3.0005,3.0031,2.9911,2.9905,2.9902,2.9893,2.9897,2.99,0,0,0,0,0,0,3.0775,3.0754,3.0549,3.0622,3.0592,3.0438,3.0401,3.0372,3.0336,3.0182,3.0152,3.0247,3.0036,3.0014,2.998,3.002,2.9903,2.9897,2.9889,2.9894,2.9899,3.0084,0,0,0,0,0,0,3.0783,3.0757,3.077,3.0624,3.0589,3.053,3.0403,3.037,3.0327,3.0309,3.0167,3.014,3.0032,2.999,2.9974,3.0009,2.9892,2.9884,2.9891,2.9897,3.0074,3.0095,3.0113,0,0,0,0,0,3.0793,3.0829,3.0771,3.075,3.0601,3.0533,3.0513,3.039,3.0331,3.034,3.0241,3.0144,3.0019,2.9989,2.9968,3.0002,2.9881,2.9889,2.9897,3.0065,3.0091,3.0113,0,0,0,0,0,0,3.0981,3.0808,3.0741,3.0733,3.065,3.0499,3.0508,3.0421,3.0351,3.0337,3.0186,3.0155,3.0139,3.0067,3.0036,3.0024,2.9937,2.9941,3.0072,3.0095,3.0115,3.0131,2.9887,0,0,0,0,0,3.1022,3.0983,3.0833,3.084,3.0802,3.0663,3.0629,3.0542,3.0448,3.0411,3.0309,3.022,3.016,3.0124,3.006,3.0063,3.0028,3.0077,3.0097,3.0114,3.0118,3.0112,3.0132,2.9926,2.9926,2.9926,0,0,3.1105,3.1006,3.099,3.0875,3.08,3.0762,3.0634,3.0598,3.0567,3.0404,3.0367,3.029,3.018,3.0165,3.0153,3.0105,3.0167,3.0123,3.0138,3.0133,3.0122,3.0142,3.0159,2.9931,2.993,2.9929,0,0,3.1236,3.1159,3.1155,3.1084,3.0973,3.0881,3.0881,3.0744,3.0687,3.0648,3.0525,3.0485,3.0385,3.0312,3.0262,3.0369,3.0275,3.0352,3.0454,3.0451,3.0467,3.048,3.0516,3.0531,3.0358,3.0358,3.0358,0,3.1352,3.1291,3.1164,3.1136,3.1088,3.0943,3.0937,3.0873,3.0747,3.0716,3.0665,3.0538,3.0454,3.0419,3.0445,3.041,3.0403,3.0366,3.0475,3.0488,3.0498,3.0531,3.0545,3.0368,3.0367,3.0366,3.0365,0,3.1439,3.1399,3.1409,3.1294,3.1247,3.1231,3.1099,3.1067,3.0985,3.0898,3.0859,3.0754,3.0666,3.0652,3.057,3.0605,3.0579,3.0504,3.0412,3.053,3.0558,3.0569,3.0382,3.0378,3.0376,3.0373,0,0,3.1679,3.1496,3.1502,3.1448,3.1316,3.1281,3.1258,3.1175,3.115,3.1068,3.1043,3.0964,3.0894,3.0837,3.0746,3.0744,3.0833,3.0668,3.0663,3.0701,3.0862,3.0918,3.0935,3.0772,3.0774,3.0775,3.0871,0,3.1786,3.1738,3.1624,3.161,3.157,3.1433,3.1412,3.1328,3.1247,3.1199,3.1107,3.1053,3.0966,3.0931,3.0923,3.0824,3.0863,3.0816,3.0744,3.0743,3.0773,3.0949,3.1008,3.1103,3.0881,3.0883,3.0884,0,3.1904,3.1835,3.1819,3.169,3.1669,3.1653,3.1567,3.1525,3.1426,3.1367,3.1306,3.1206,3.1172,3.109,3.1039,3.101,3.0974,3.0921,3.0922,3.0908,3.0819,3.0938,3.113,3.1144,3.09,3.0899,3.0898,0,3.2079,3.1981,3.1958,3.1916,3.1766,3.1758,3.1695,3.1593,3.1551,3.1476,3.1447,3.1369,3.1325,3.1266,3.1147,3.1098,3.1108,3.1017,3.1055,3.1059,3.1061,3.1062,3.1248,3.1043,3.1043,3.1043,3.1043,0,3.2209,3.2204,3.2034,3.202,3.201,3.1878,3.1871,3.1794,3.1706,3.1672,3.1548,3.1519,3.1366,3.1318,3.1225,3.1196,3.1177,3.1126,3.1101,3.1136,3.1142,3.1108,3.1097,3.1046,3.1046,3.1045,3.1044,0,3.24,3.2287,3.2253,3.2116,3.2081,3.2079,3.196,3.1939,3.1852,3.1812,3.1794,3.1656,3.1593,3.147,3.1373,3.131,3.1301,3.1259,3.1336,3.1319,3.1364,3.1361,3.1533,3.1548,3.1337,3.1339,3.1341,0,3.249,3.2483,3.2346,3.2316,3.2259,3.2213,3.217,3.204,3.2,3.1889,3.1882,3.1811,3.1747,3.1653,3.1542,3.1467,3.142,3.1485,3.1407,3.1442,3.1417,3.1419,3.1416,3.1502,3.1505,3.1507,3.1509,0,3.2659,3.2604,3.2549,3.2475,3.2428,3.2362,3.2289,3.2272,3.2125,3.2086,3.2023,3.1974,3.1876,3.1806,3.1715,3.1646,3.1552,3.1536,3.154,3.1574,3.1618,3.1592,3.138,3.1531,3.1529,3.1527,3.1526,3.1525,3.2799,3.2787,3.269,3.2632,3.2565,3.2501,3.2475,3.2386,3.2332,3.2244,3.2171,3.2114,3.2015,3.1884,3.1821,3.1773,3.1727,3.1735,3.1736,3.1739,3.1753,3.1629,3.1756,3.1755,3.1754,3.1754,3.1753,0,3.296,3.2892,3.2841,3.2745,3.27,3.2621,3.2537,3.2503,3.2455,3.2373,3.2313,3.224,3.2172,3.2058,3.1979,3.1962,3.1918,3.1946,3.1944,3.193,3.1799,3.1802,3.1984,3.1984,3.1984,3.1984,3.1984,3.1984,3.3039,3.3013,3.2948,3.2887,3.2817,3.2763,3.2722,3.2661,3.2594,3.252,3.2464,3.2391,3.2295,3.2209,3.2142,3.211,3.2085,3.2128,3.2082,3.1961,3.1939,3.1918,3.192,3.2124,3.2124,3.2216,3.2217,3.2217]},{"header":{"parameterUnit":"m.s-1","parameterCategory":1,"la1":30.2991,"la2":30.254,"lo1":-89.0895,"lo2":-89.0444,"dy":0.0017,"dx":0.0017,"nx":28,"ny":28,"refTime":"2024-07-23T03:00:00:Z","depth":0,"parameterNumber":3,"parameterNumberName":"V-component_of_WINDS"},"data":[0,0,0,0,0,0,0,0,0,0,0,0,0,0,0,0,0,0,0,0,0,0,0,0,0,0,0,0,0,0,0,0,0,0,0,0,0,0,0,0,0,0,0,0,0,0,0,0,0,0,0,0,0,0,0,0,0,0,2.7716,2.7718,0,2.7895,2.7897,2.7898,2.8052,2.8053,2.8055,2.8057,2.8227,2.823,2.8233,0,0,0,0,0,0,0,0,0,0,0,0,0,2.7497,2.75,2.7716,2.7718,2.772,2.7894,2.7897,2.7899,2.8051,2.8054,2.8056,2.8058,2.8226,2.8229,2.8233,0,0,0,0,0,0,0,0,0,0,0,0,0,2.7625,2.7501,2.7716,2.7818,2.7829,2.7894,2.7897,2.79,2.8051,2.8054,2.8056,2.8059,2.8225,2.8229,2.8233,2.8208,0,0,2.8247,2.8249,0,0,0,0,0,0,0,0,2.7617,2.7633,2.7801,2.7811,2.7823,2.7954,2.7882,2.8002,2.805,2.7966,2.8057,2.806,2.8133,2.8145,2.8173,2.8216,2.8223,2.8247,2.825,2.8252,2.8253,0,0,0,0,0,0,0,2.7608,2.7626,2.7786,2.7803,2.7817,2.7851,2.7872,2.7905,2.8032,2.7974,2.7985,2.8005,2.814,2.8168,2.8178,2.8226,2.8247,2.8251,2.8254,2.8255,2.8257,2.8254,0,0,0,0,0,0,2.7585,2.7617,2.7781,2.7792,2.7725,2.7853,2.7877,2.7909,2.8033,2.8054,2.8003,2.8011,2.8159,2.8172,2.8184,2.8162,2.8252,2.8256,2.8258,2.8259,2.8256,2.8253,0,0,0,0,0,0,2.758,2.7598,2.7773,2.7708,2.7733,2.7854,2.7889,2.7911,2.794,2.8055,2.8077,2.8009,2.8162,2.8178,2.8202,2.817,2.8258,2.8262,2.8262,2.8258,2.8255,2.8117,0,0,0,0,0,0,2.7573,2.7596,2.7589,2.7707,2.7736,2.779,2.7887,2.7913,2.7948,2.7962,2.8066,2.8086,2.8165,2.8194,2.8206,2.8178,2.8265,2.8266,2.8261,2.8256,2.8125,2.8109,2.8096,0,0,0,0,0,2.7565,2.7541,2.7588,2.7607,2.7731,2.7788,2.7805,2.79,2.7945,2.7938,2.8012,2.8082,2.8172,2.8196,2.821,2.8182,2.8268,2.8262,2.8256,2.8132,2.8112,2.8096,0,0,0,0,0,0,2.7411,2.7558,2.7612,2.7626,2.7694,2.7814,2.7808,2.7876,2.793,2.7939,2.8052,2.8074,2.8085,2.8137,2.816,2.8164,2.823,2.8226,2.813,2.8112,2.8098,2.8084,2.8269,0,0,0,0,0,2.738,2.7418,2.7543,2.7542,2.7575,2.7685,2.7714,2.7782,2.7855,2.7883,2.7959,2.8024,2.8068,2.8093,2.8139,2.8134,2.8158,2.8123,2.8108,2.8095,2.809,2.809,2.8076,2.8234,2.8235,2.8235,0,0,2.7313,2.7398,2.7414,2.7514,2.7575,2.7608,2.7708,2.7739,2.7764,2.7887,2.7915,2.7973,2.8053,2.8062,2.807,2.8105,2.8052,2.8088,2.8077,2.8079,2.8083,2.8068,2.8054,2.8231,2.8231,2.8232,0,0,2.7209,2.7279,2.7287,2.7347,2.744,2.7514,2.7516,2.7627,2.7671,2.7702,2.7795,2.7825,2.7897,2.7951,2.7987,2.7907,2.7972,2.7918,2.784,2.7839,2.7826,2.7816,2.7785,2.7773,2.7914,2.7913,2.7913,0,2.7113,2.7172,2.7281,2.7308,2.7348,2.7466,2.7473,2.7525,2.7625,2.7648,2.7689,2.7783,2.7845,2.7868,2.7849,2.7875,2.7878,2.7905,2.782,2.7811,2.7802,2.7774,2.7763,2.7906,2.7907,2.7908,2.7908,0,2.7049,2.7088,2.7083,2.7183,2.7222,2.7238,2.7347,2.7373,2.7439,2.7508,2.7537,2.7617,2.7681,2.7692,2.7754,2.7724,2.7743,2.78,2.7867,2.7778,2.7754,2.7744,2.7895,2.7898,2.79,2.7902,0,0,2.6849,2.7013,2.7009,2.7056,2.7168,2.7198,2.7219,2.7287,2.7307,2.7373,2.7392,2.7452,2.7506,2.7547,2.7617,2.7616,2.7546,2.7674,2.7677,2.7645,2.7516,2.747,2.7456,2.7592,2.7591,2.7589,2.7508,0,2.6762,2.6812,2.6911,2.6927,2.6963,2.7077,2.7096,2.7164,2.723,2.7268,2.7339,2.738,2.7449,2.7475,2.748,2.7553,2.7521,2.7561,2.7606,2.7607,2.758,2.7444,2.7396,2.7315,2.75,2.7498,2.7497,0,2.6666,2.673,2.6751,2.6863,2.6882,2.6897,2.6967,2.7003,2.7083,2.7131,2.7179,2.7257,2.7282,2.7347,2.7382,2.7407,2.7432,2.7471,2.747,2.7475,2.7544,2.7443,2.7292,2.7278,2.7483,2.7485,2.7485,0,2.6516,2.6607,2.6632,2.6669,2.68,2.6808,2.6862,2.6946,2.6981,2.7041,2.7064,2.7125,2.7157,2.7202,2.7293,2.7332,2.7317,2.7389,2.7354,2.7352,2.7343,2.7341,2.7191,2.7363,2.7363,2.7364,2.7364,0,2.6406,2.6413,2.6567,2.6581,2.6592,2.6707,2.6713,2.6778,2.6852,2.6878,2.698,2.7002,2.7123,2.7158,2.723,2.7247,2.7261,2.7298,2.7316,2.7287,2.7282,2.7302,2.7309,2.7361,2.7361,2.7362,2.7362,0,2.6238,2.6342,2.6376,2.65,2.6531,2.6534,2.6638,2.6655,2.6729,2.6761,2.6775,2.6888,2.6935,2.7033,2.7105,2.7153,2.7152,2.7187,2.7126,2.7137,2.7095,2.7096,2.695,2.6936,2.7118,2.7117,2.7115,0,2.616,2.617,2.6296,2.6324,2.6375,2.6418,2.6455,2.6568,2.6602,2.6695,2.67,2.6756,2.6807,2.6876,2.6962,2.7018,2.7053,2.6998,2.7061,2.7032,2.7049,2.7046,2.7047,2.6982,2.698,2.6978,2.6976,0,2.6009,2.6061,2.6113,2.6184,2.6227,2.6286,2.6351,2.6366,2.6494,2.6526,2.6578,2.6618,2.6694,2.6747,2.6817,2.6869,2.6941,2.6956,2.6951,2.6919,2.6882,2.69,2.7084,2.6958,2.696,2.6961,2.6962,2.6963,2.5883,2.5896,2.5988,2.6043,2.6105,2.6163,2.6186,2.6265,2.6311,2.6385,2.6448,2.6494,2.6574,2.6676,2.6724,2.6759,2.6795,2.6787,2.6784,2.678,2.6767,2.688,2.6772,2.6773,2.6773,2.6774,2.6774,0,2.5735,2.5801,2.5851,2.5941,2.5983,2.6055,2.6131,2.616,2.62,2.6272,2.6321,2.638,2.6433,2.6526,2.6586,2.6596,2.663,2.6607,2.6605,2.6616,2.6732,2.673,2.6578,2.6578,2.6578,2.6578,2.6578,2.6578,2.5663,2.569,2.5752,2.581,2.5876,2.5925,2.5962,2.6015,2.6073,2.6136,2.6183,2.6245,2.6324,2.6391,2.6442,2.6468,2.6483,2.6448,2.6484,2.659,2.6608,2.6625,2.6624,2.6452,2.6451,2.6365,2.6364,2.6363]}]]